Time,TemperatureF,DewpointF,PressureIn,WindDirection,WindDirectionDegrees,WindSpeedMPH,WindSpeedGustMPH,Humidity,HourlyPrecipIn,Conditions,Clouds,dailyrainin,SoftwareType,DateUTC
2013-03-10 00:00:00,34.9,22.9,30.24,WSW,248,2.5,4.0,61,0.00,,,0.00,WUHU216HW,2013-03-10 05:00:00,
2013-03-10 00:01:00,35.1,23.0,30.24,WSW,248,2.2,4.0,61,0.00,,,0.00,WUHU216HW,2013-03-10 05:01:00,
2013-03-10 00:06:00,35.6,23.2,30.24,WSW,248,1.8,4.0,60,0.00,,,0.00,WUHU216HW,2013-03-10 05:06:00,
2013-03-10 00:11:00,35.8,23.4,30.24,SW,225,2.5,2.7,60,0.00,,,0.00,WUHU216HW,2013-03-10 05:11:00,
2013-03-10 00:16:00,35.8,23.4,30.23,SW,225,2.2,2.7,60,0.00,,,0.00,WUHU216HW,2013-03-10 05:16:00,
2013-03-10 00:21:00,35.6,23.2,30.23,SSW,203,1.6,2.5,60,0.00,,,0.00,WUHU216HW,2013-03-10 05:21:00,
2013-03-10 00:27:00,35.5,23.0,30.23,SW,225,2.7,3.1,60,0.00,,,0.00,WUHU216HW,2013-03-10 05:27:00,
2013-03-10 00:32:00,35.5,23.0,30.23,WSW,248,2.5,3.1,60,0.00,,,0.00,WUHU216HW,2013-03-10 05:32:00,
2013-03-10 00:37:00,35.1,22.7,30.23,SSW,203,1.1,2.5,60,0.00,,,0.00,WUHU216HW,2013-03-10 05:37:00,
2013-03-10 00:42:00,34.9,22.5,30.23,WSW,248,0.7,1.1,60,0.00,,,0.00,WUHU216HW,2013-03-10 05:42:00,
2013-03-10 00:47:00,34.7,22.3,30.23,SW,225,2.5,2.5,60,0.00,,,0.00,WUHU216HW,2013-03-10 05:47:00,
2013-03-10 00:52:00,34.6,22.9,30.23,SW,225,0.9,2.9,62,0.00,,,0.00,WUHU216HW,2013-03-10 05:52:00,
2013-03-10 00:57:00,34.4,22.3,30.23,WSW,248,0.4,2.9,61,0.00,,,0.00,WUHU216HW,2013-03-10 05:57:00,
2013-03-10 01:02:00,34.4,22.7,30.23,WSW,248,0.4,1.8,62,0.00,,,0.00,WUHU216HW,2013-03-10 06:02:00,
2013-03-10 01:07:00,34.2,22.5,30.23,West,270,0.0,0.4,62,0.00,,,0.00,WUHU216HW,2013-03-10 06:07:00,
2013-03-10 01:12:00,34.2,22.5,30.23,WSW,248,0.4,0.4,62,0.00,,,0.00,WUHU216HW,2013-03-10 06:12:00,
2013-03-10 01:17:00,34.0,22.3,30.24,West,270,0.4,0.7,62,0.00,,,0.00,WUHU216HW,2013-03-10 06:17:00,
2013-03-10 01:22:00,33.8,22.1,30.23,WSW,248,1.6,1.6,62,0.00,,,0.00,WUHU216HW,2013-03-10 06:22:00,
2013-03-10 01:27:00,33.8,22.1,30.24,SW,225,1.8,2.2,62,0.00,,,0.00,WUHU216HW,2013-03-10 06:27:00,
2013-03-10 01:32:00,34.0,22.7,30.23,WSW,248,1.6,2.5,63,0.00,,,0.00,WUHU216HW,2013-03-10 06:32:00,
2013-03-10 01:37:00,34.0,22.3,30.23,WSW,248,0.7,2.5,62,0.00,,,0.00,WUHU216HW,2013-03-10 06:37:00,
2013-03-10 01:42:00,34.0,22.7,30.23,SW,225,1.8,2.2,63,0.00,,,0.00,WUHU216HW,2013-03-10 06:42:00,
2013-03-10 01:47:00,34.0,22.7,30.23,WSW,248,1.3,2.7,63,0.00,,,0.00,WUHU216HW,2013-03-10 06:47:00,
2013-03-10 01:52:00,34.0,23.0,30.23,WSW,248,0.4,2.7,64,0.00,,,0.00,WUHU216HW,2013-03-10 06:52:00,
2013-03-10 01:57:00,33.8,22.5,30.23,SW,225,1.3,2.2,63,0.00,,,0.00,WUHU216HW,2013-03-10 06:57:00,
2013-03-10 03:02:00,33.7,22.7,30.22,SSW,203,1.3,2.2,64,0.00,,,0.00,WUHU216HW,2013-03-10 07:02:00,
2013-03-10 03:07:00,33.7,23.0,30.22,WSW,248,0.4,2.2,65,0.00,,,0.00,WUHU216HW,2013-03-10 07:07:00,
2013-03-10 03:12:00,33.3,22.8,30.22,SSW,203,0.4,2.2,65,0.00,,,0.00,WUHU216HW,2013-03-10 07:12:00,
2013-03-10 03:17:00,32.9,22.1,30.22,SW,225,0.4,0.4,64,0.00,,,0.00,WUHU216HW,2013-03-10 07:17:00,
2013-03-10 03:22:00,32.8,21.9,30.22,WSW,248,0.0,0.4,64,0.00,,,0.00,WUHU216HW,2013-03-10 07:22:00,
2013-03-10 03:27:00,32.8,21.9,30.21,WSW,248,0.0,0.4,64,0.00,,,0.00,WUHU216HW,2013-03-10 07:27:00,
2013-03-10 03:32:00,32.6,22.1,30.21,WSW,248,1.1,1.6,65,0.00,,,0.00,WUHU216HW,2013-03-10 07:32:00,
2013-03-10 03:37:00,32.4,22.0,30.21,WSW,248,0.0,1.6,65,0.00,,,0.00,WUHU216HW,2013-03-10 07:37:00,
2013-03-10 03:42:00,32.4,22.0,30.21,SW,225,1.6,1.6,65,0.00,,,0.00,WUHU216HW,2013-03-10 07:42:00,
2013-03-10 03:47:00,32.2,21.8,30.21,West,270,0.0,1.6,65,0.00,,,0.00,WUHU216HW,2013-03-10 07:47:00,
2013-03-10 03:52:00,32.2,22.2,30.21,WSW,248,0.4,1.1,66,0.00,,,0.00,WUHU216HW,2013-03-10 07:52:00,
2013-03-10 03:57:00,32.2,22.2,30.21,West,270,0.0,1.1,66,0.00,,,0.00,WUHU216HW,2013-03-10 07:57:00,
2013-03-10 04:02:00,32.2,22.2,30.20,WSW,248,0.0,0.4,66,0.00,,,0.00,WUHU216HW,2013-03-10 08:02:00,
2013-03-10 04:07:00,32.0,22.3,30.20,WSW,248,0.4,2.0,67,0.00,,,0.00,WUHU216HW,2013-03-10 08:07:00,
2013-03-10 04:12:00,32.0,22.3,30.20,WSW,248,1.8,2.0,67,0.00,,,0.00,WUHU216HW,2013-03-10 08:12:00,
2013-03-10 04:17:00,32.0,22.3,30.20,SW,225,1.8,1.8,67,0.00,,,0.00,WUHU216HW,2013-03-10 08:17:00,
2013-03-10 04:22:00,32.0,22.0,30.20,WSW,248,0.7,1.8,66,0.00,,,0.00,WUHU216HW,2013-03-10 08:22:00,
2013-03-10 04:27:00,31.9,21.8,30.20,SSW,203,0.4,1.1,66,0.00,,,0.00,WUHU216HW,2013-03-10 08:27:00,
2013-03-10 04:32:00,31.7,21.6,30.20,WSW,248,0.7,1.1,66,0.00,,,0.00,WUHU216HW,2013-03-10 08:32:00,
2013-03-10 04:37:00,31.9,21.8,30.20,West,270,0.2,1.1,66,0.00,,,0.00,WUHU216HW,2013-03-10 08:37:00,
2013-03-10 04:42:00,31.7,22.0,30.20,SW,225,1.1,1.3,67,0.00,,,0.00,WUHU216HW,2013-03-10 08:42:00,
2013-03-10 04:47:00,31.7,22.0,30.20,SW,225,2.5,2.5,67,0.00,,,0.00,WUHU216HW,2013-03-10 08:47:00,
2013-03-10 04:52:00,31.7,22.0,30.20,WSW,248,0.7,2.7,67,0.00,,,0.00,WUHU216HW,2013-03-10 08:52:00,
2013-03-10 04:56:00,31.7,22.3,30.20,WSW,248,0.2,2.7,68,0.00,,,0.00,WUHU216HW,2013-03-10 08:56:00,
2013-03-10 05:01:00,31.5,21.8,30.20,WSW,248,0.9,2.2,67,0.00,,,0.00,WUHU216HW,2013-03-10 09:01:00,
2013-03-10 05:06:00,31.3,21.6,30.20,West,270,0.0,0.9,67,0.00,,,0.00,WUHU216HW,2013-03-10 09:06:00,
2013-03-10 05:11:00,31.1,21.4,30.20,West,270,0.0,0.7,67,0.00,,,0.00,WUHU216HW,2013-03-10 09:11:00,
2013-03-10 05:16:00,31.0,21.6,30.20,SSW,203,0.0,0.4,68,0.00,,,0.00,WUHU216HW,2013-03-10 09:16:00,
2013-03-10 05:21:00,30.8,22.1,30.20,SSW,203,0.7,0.7,70,0.00,,,0.00,WUHU216HW,2013-03-10 09:21:00,
2013-03-10 05:26:00,30.6,23.0,30.21,West,270,0.2,0.9,73,0.00,,,0.00,WUHU216HW,2013-03-10 09:26:00,
2013-03-10 05:31:00,30.6,22.0,30.21,WNW,293,0.9,0.9,70,0.00,,,0.00,WUHU216HW,2013-03-10 09:31:00,
2013-03-10 05:36:00,30.6,22.0,30.21,SW,225,0.0,1.1,70,0.00,,,0.00,WUHU216HW,2013-03-10 09:36:00,
2013-03-10 05:41:00,30.6,23.0,30.21,West,270,0.4,1.1,73,0.00,,,0.00,WUHU216HW,2013-03-10 09:41:00,
2013-03-10 05:46:00,30.4,21.8,30.21,WNW,293,0.2,0.7,70,0.00,,,0.00,WUHU216HW,2013-03-10 09:46:00,
2013-03-10 05:51:00,30.4,21.8,30.21,WNW,293,0.4,0.4,70,0.00,,,0.00,WUHU216HW,2013-03-10 09:51:00,
2013-03-10 05:56:00,30.4,22.8,30.21,WNW,293,0.0,0.4,73,0.00,,,0.00,WUHU216HW,2013-03-10 09:56:00,
2013-03-10 06:01:00,30.4,22.2,30.22,West,270,0.0,0.4,71,0.00,,,0.00,WUHU216HW,2013-03-10 10:01:00,
2013-03-10 06:07:00,30.4,21.8,30.21,West,270,0.0,0.0,70,0.00,,,0.00,WUHU216HW,2013-03-10 10:07:00,
2013-03-10 06:12:00,30.4,21.8,30.22,West,270,0.0,0.0,70,0.00,,,0.00,WUHU216HW,2013-03-10 10:12:00,
2013-03-10 06:17:00,30.4,21.8,30.21,SW,225,1.1,1.8,70,0.00,,,0.00,WUHU216HW,2013-03-10 10:17:00,
2013-03-10 06:22:00,30.4,21.8,30.21,SSW,203,1.1,1.8,70,0.00,,,0.00,WUHU216HW,2013-03-10 10:22:00,
2013-03-10 06:27:00,30.4,22.2,30.21,SW,225,1.1,1.8,71,0.00,,,0.00,WUHU216HW,2013-03-10 10:27:00,
2013-03-10 06:31:00,30.2,21.6,30.21,WSW,248,2.5,2.5,70,0.00,,,0.00,WUHU216HW,2013-03-10 10:31:00,
2013-03-10 06:36:00,30.2,22.0,30.21,SSW,203,2.2,2.5,71,0.00,,,0.00,WUHU216HW,2013-03-10 10:36:00,
2013-03-10 06:41:00,30.4,22.4,30.20,SSW,203,1.6,2.2,72,0.00,,,0.00,WUHU216HW,2013-03-10 10:41:00,
2013-03-10 06:46:00,30.4,22.4,30.21,WSW,248,1.1,2.0,72,0.00,,,0.00,WUHU216HW,2013-03-10 10:46:00,
2013-03-10 06:51:00,30.4,22.4,30.21,West,270,0.9,2.5,72,0.00,,,0.00,WUHU216HW,2013-03-10 10:51:00,
2013-03-10 06:56:00,30.2,23.2,30.21,WNW,293,0.2,2.5,75,0.00,,,0.00,WUHU216HW,2013-03-10 10:56:00,
2013-03-10 07:01:00,29.9,22.2,30.21,SW,225,0.0,1.3,73,0.00,,,0.00,WUHU216HW,2013-03-10 11:01:00,
2013-03-10 07:06:00,29.9,22.0,30.21,WSW,248,0.0,0.2,72,0.00,,,0.00,WUHU216HW,2013-03-10 11:06:00,
2013-03-10 07:11:00,29.7,21.8,30.21,SSW,203,0.0,0.4,72,0.00,,,0.00,WUHU216HW,2013-03-10 11:11:00,
2013-03-10 07:16:00,29.7,21.8,30.20,SSW,203,1.1,1.1,72,0.00,,,0.00,WUHU216HW,2013-03-10 11:16:00,
2013-03-10 07:22:00,29.7,21.4,30.20,South,180,0.9,1.3,71,0.00,,,0.00,WUHU216HW,2013-03-10 11:22:00,
2013-03-10 07:27:00,29.5,22.5,30.20,South,180,0.0,1.3,75,0.00,,,0.00,WUHU216HW,2013-03-10 11:27:00,
2013-03-10 07:33:00,29.2,21.9,30.20,South,180,0.0,0.4,74,0.00,,,0.00,WUHU216HW,2013-03-10 11:33:00,
2013-03-10 07:38:00,29.0,22.1,30.21,WNW,293,0.9,0.9,75,0.00,,,0.00,WUHU216HW,2013-03-10 11:38:00,
2013-03-10 07:43:00,29.2,21.9,30.21,SW,225,0.4,0.9,74,0.00,,,0.00,WUHU216HW,2013-03-10 11:43:00,
2013-03-10 07:48:00,29.2,22.2,30.22,WNW,293,0.2,0.7,75,0.00,,,0.00,WUHU216HW,2013-03-10 11:48:00,
2013-03-10 07:53:00,29.5,22.5,30.22,WSW,248,0.0,0.4,75,0.00,,,0.00,WUHU216HW,2013-03-10 11:53:00,
2013-03-10 07:58:00,29.7,22.4,30.22,WSW,248,0.0,0.4,74,0.00,,,0.00,WUHU216HW,2013-03-10 11:58:00,
2013-03-10 08:03:00,30.1,23.4,30.22,WSW,248,0.0,0.9,76,0.00,,,0.00,WUHU216HW,2013-03-10 12:03:00,
2013-03-10 08:08:00,30.4,23.4,30.23,WSW,248,0.0,0.9,75,0.00,,,0.00,WUHU216HW,2013-03-10 12:08:00,
2013-03-10 08:13:00,30.6,23.2,30.23,WNW,293,1.1,1.1,74,0.00,,,0.00,WUHU216HW,2013-03-10 12:13:00,
2013-03-10 08:18:00,31.0,24.6,30.23,SW,225,1.1,1.1,77,0.00,,,0.00,WUHU216HW,2013-03-10 12:18:00,
2013-03-10 08:23:00,31.7,25.0,30.23,WNW,293,1.6,1.6,76,0.00,,,0.00,WUHU216HW,2013-03-10 12:23:00,
2013-03-10 08:28:00,32.0,24.7,30.23,WSW,248,0.4,1.6,74,0.00,,,0.00,WUHU216HW,2013-03-10 12:28:00,
2013-03-10 08:33:00,32.2,24.8,30.23,WNW,293,0.4,1.6,74,0.00,,,0.00,WUHU216HW,2013-03-10 12:33:00,
2013-03-10 08:38:00,32.6,24.8,30.24,West,270,0.2,0.7,73,0.00,,,0.00,WUHU216HW,2013-03-10 12:38:00,
2013-03-10 08:43:00,32.8,25.0,30.23,SW,225,2.2,2.2,73,0.00,,,0.00,WUHU216HW,2013-03-10 12:43:00,
2013-03-10 08:48:00,33.1,25.4,30.23,WSW,248,2.9,4.5,73,0.00,,,0.00,WUHU216HW,2013-03-10 12:48:00,
2013-03-10 08:53:00,33.8,25.7,30.24,SW,225,2.9,4.5,72,0.00,,,0.00,WUHU216HW,2013-03-10 12:53:00,
2013-03-10 08:58:00,34.4,26.2,30.24,SSW,203,2.5,6.5,72,0.00,,,0.00,WUHU216HW,2013-03-10 12:58:00,
2013-03-10 09:03:00,34.9,26.5,30.24,SW,225,0.9,6.5,71,0.00,,,0.00,WUHU216HW,2013-03-10 13:03:00,
2013-03-10 09:08:00,35.6,26.8,30.24,SSW,203,1.8,5.4,70,0.00,,,0.00,WUHU216HW,2013-03-10 13:08:00,
2013-03-10 09:13:00,36.2,27.7,30.24,SSW,203,2.7,4.3,71,0.00,,,0.00,WUHU216HW,2013-03-10 13:13:00,
2013-03-10 09:18:00,36.7,27.6,30.24,SW,225,4.3,7.6,69,0.00,,,0.00,WUHU216HW,2013-03-10 13:18:00,
2013-03-10 09:23:00,37.4,27.9,30.24,SSW,203,2.0,7.6,68,0.00,,,0.00,WUHU216HW,2013-03-10 13:23:00,
2013-03-10 09:28:00,38.0,28.4,30.24,West,270,0.4,4.0,68,0.00,,,0.00,WUHU216HW,2013-03-10 13:28:00,
2013-03-10 09:33:00,38.5,28.4,30.24,SW,225,0.7,3.1,67,0.00,,,0.00,WUHU216HW,2013-03-10 13:33:00,
2013-03-10 09:38:00,39.2,29.1,30.25,SSW,203,3.4,3.4,67,0.00,,,0.00,WUHU216HW,2013-03-10 13:38:00,
2013-03-10 09:43:00,40.0,28.7,30.24,SW,225,3.6,4.0,64,0.00,,,0.00,WUHU216HW,2013-03-10 13:43:00,
2013-03-10 09:48:00,40.7,29.4,30.24,SW,225,2.5,4.0,64,0.00,,,0.00,WUHU216HW,2013-03-10 13:48:00,
2013-03-10 09:53:00,41.4,29.3,30.24,SW,225,2.5,3.4,62,0.00,,,0.00,WUHU216HW,2013-03-10 13:53:00,
2013-03-10 09:58:00,42.1,30.4,30.24,SSW,203,2.9,3.6,63,0.00,,,0.00,WUHU216HW,2013-03-10 13:58:00,
2013-03-10 10:03:00,42.7,30.9,30.25,SSW,203,3.8,3.8,63,0.00,,,0.00,WUHU216HW,2013-03-10 14:03:00,
2013-03-10 10:08:00,43.4,30.4,30.25,SW,225,4.9,5.4,60,0.00,,,0.00,WUHU216HW,2013-03-10 14:08:00,
2013-03-10 10:13:00,43.9,30.1,30.25,WSW,248,3.4,5.4,58,0.00,,,0.00,WUHU216HW,2013-03-10 14:13:00,
2013-03-10 10:18:00,44.6,29.9,30.24,WSW,248,4.7,5.1,56,0.00,,,0.00,WUHU216HW,2013-03-10 14:18:00,
2013-03-10 10:23:00,45.2,29.9,30.24,SSW,203,5.4,5.6,55,0.00,,,0.00,WUHU216HW,2013-03-10 14:23:00,
2013-03-10 10:28:00,45.7,29.5,30.24,WNW,293,1.1,5.6,53,0.00,,,0.00,WUHU216HW,2013-03-10 14:28:00,
2013-03-10 10:33:00,46.4,30.6,30.24,SSW,203,2.7,2.9,54,0.00,,,0.00,WUHU216HW,2013-03-10 14:33:00,
2013-03-10 10:38:00,47.2,31.3,30.24,WSW,248,4.0,5.4,54,0.00,,,0.00,WUHU216HW,2013-03-10 14:38:00,
2013-03-10 10:43:00,47.7,30.9,30.24,SW,225,4.0,5.4,52,0.00,,,0.00,WUHU216HW,2013-03-10 14:43:00,
2013-03-10 10:48:00,48.1,28.6,30.24,SSW,203,3.4,5.1,47,0.00,,,0.00,WUHU216HW,2013-03-10 14:48:00,
2013-03-10 10:53:00,48.6,30.8,30.24,South,180,0.7,4.3,50,0.00,,,0.00,WUHU216HW,2013-03-10 14:53:00,
2013-03-10 10:58:00,49.3,30.4,30.24,South,180,2.2,4.7,48,0.00,,,0.00,WUHU216HW,2013-03-10 14:58:00,
2013-03-10 11:03:00,50.4,30.3,30.24,SW,225,4.3,4.7,46,0.00,,,0.00,WUHU216HW,2013-03-10 15:03:00,
2013-03-10 11:08:00,50.9,29.2,30.24,NNW,338,0.0,4.3,43,0.00,,,0.00,WUHU216HW,2013-03-10 15:08:00,
2013-03-10 11:13:00,51.5,30.7,30.24,SW,225,1.3,3.6,45,0.00,,,0.00,WUHU216HW,2013-03-10 15:13:00,
2013-03-10 11:18:00,52.2,30.2,30.24,SSW,203,4.7,4.7,43,0.00,,,0.00,WUHU216HW,2013-03-10 15:18:00,
2013-03-10 11:23:00,52.7,30.8,30.23,WSW,248,1.3,4.7,43,0.00,,,0.00,WUHU216HW,2013-03-10 15:23:00,
2013-03-10 11:28:00,53.1,31.1,30.24,SW,225,3.8,4.5,43,0.00,,,0.00,WUHU216HW,2013-03-10 15:28:00,
2013-03-10 11:33:00,53.5,30.9,30.24,SW,225,4.3,4.3,42,0.00,,,0.00,WUHU216HW,2013-03-10 15:33:00,
2013-03-10 11:38:00,54.0,30.8,30.23,South,180,0.9,4.3,41,0.00,,,0.00,WUHU216HW,2013-03-10 15:38:00,
2013-03-10 11:43:00,55.1,31.8,30.23,SSW,203,2.5,2.9,41,0.00,,,0.00,WUHU216HW,2013-03-10 15:43:00,
2013-03-10 11:48:00,55.8,30.4,30.23,South,180,1.1,3.6,38,0.00,,,0.00,WUHU216HW,2013-03-10 15:48:00,
2013-03-10 11:53:00,56.5,31.1,30.23,SW,225,4.0,4.0,38,0.00,,,0.00,WUHU216HW,2013-03-10 15:53:00,
2013-03-10 11:58:00,57.6,31.3,30.23,SW,225,4.7,4.7,37,0.00,,,0.00,WUHU216HW,2013-03-10 15:58:00,
2013-03-10 12:03:00,57.6,28.5,30.23,SW,225,2.5,5.8,33,0.00,,,0.00,WUHU216HW,2013-03-10 16:03:00,
2013-03-10 12:08:00,57.6,28.5,30.23,SW,225,2.5,5.8,33,0.00,,,0.00,WUHU216HW,2013-03-10 16:08:00,
2013-03-10 12:13:00,58.3,31.3,30.23,SSW,203,4.3,4.3,36,0.00,,,0.00,WUHU216HW,2013-03-10 16:13:00,
2013-03-10 12:18:00,58.3,31.3,30.23,WSW,248,3.4,4.3,36,0.00,,,0.00,WUHU216HW,2013-03-10 16:18:00,
2013-03-10 12:23:00,58.0,30.2,30.23,South,180,2.9,4.5,35,0.00,,,0.00,WUHU216HW,2013-03-10 16:23:00,
2013-03-10 12:28:00,58.1,29.7,30.22,WSW,248,2.7,4.5,34,0.00,,,0.00,WUHU216HW,2013-03-10 16:28:00,
2013-03-10 12:33:00,58.5,32.9,30.22,South,180,2.7,4.5,38,0.00,,,0.00,WUHU216HW,2013-03-10 16:33:00,
2013-03-10 12:38:00,59.0,30.5,30.22,SSW,203,3.4,4.5,34,0.00,,,0.00,WUHU216HW,2013-03-10 16:38:00,
2013-03-10 12:43:00,59.4,30.2,30.22,SSE,158,6.3,6.9,33,0.00,,,0.00,WUHU216HW,2013-03-10 16:43:00,
2013-03-10 12:48:00,59.4,30.2,30.22,SSE,158,6.3,6.9,33,0.00,,,0.00,WUHU216HW,2013-03-10 16:48:00,
2013-03-10 12:53:00,61.6,32.0,30.21,South,180,2.5,4.9,33,0.00,,,0.00,WUHU216HW,2013-03-10 16:53:00,
2013-03-10 12:58:00,61.6,32.7,30.21,South,180,4.0,4.9,34,0.00,,,0.00,WUHU216HW,2013-03-10 16:58:00,
2013-03-10 13:03:00,62.5,32.0,30.21,SSW,203,2.5,5.1,32,0.00,,,0.00,WUHU216HW,2013-03-10 17:03:00,
2013-03-10 13:08:00,62.3,31.9,30.21,SW,225,4.7,6.3,32,0.00,,,0.00,WUHU216HW,2013-03-10 17:08:00,
2013-03-10 13:13:00,62.3,31.9,30.21,SW,225,4.7,6.3,32,0.00,,,0.00,WUHU216HW,2013-03-10 17:13:00,
2013-03-10 13:18:00,61.2,30.3,30.20,SE,135,4.3,6.5,31,0.00,,,0.00,WUHU216HW,2013-03-10 17:18:00,
2013-03-10 13:23:00,61.6,32.0,30.20,South,180,6.5,6.5,33,0.00,,,0.00,WUHU216HW,2013-03-10 17:23:00,
2013-03-10 13:28:00,62.5,31.3,30.19,SSW,203,6.3,6.5,31,0.00,,,0.00,WUHU216HW,2013-03-10 17:28:00,
2013-03-10 13:33:00,63.2,32.0,30.19,SSE,158,4.5,6.3,31,0.00,,,0.00,WUHU216HW,2013-03-10 17:33:00,
2013-03-10 13:38:00,63.7,32.5,30.19,SSE,158,4.7,5.4,31,0.00,,,0.00,WUHU216HW,2013-03-10 17:38:00,
2013-03-10 13:43:00,63.7,32.5,30.18,SSW,203,4.0,6.7,31,0.00,,,0.00,WUHU216HW,2013-03-10 17:43:00,
2013-03-10 13:48:00,63.5,33.0,30.18,South,180,7.6,8.5,32,0.00,,,0.00,WUHU216HW,2013-03-10 17:48:00,
2013-03-10 13:53:00,63.7,31.8,30.18,SSE,158,6.5,9.4,30,0.00,,,0.00,WUHU216HW,2013-03-10 17:53:00,
2013-03-10 13:58:00,64.3,32.2,30.18,SSW,203,9.2,9.4,30,0.00,,,0.00,WUHU216HW,2013-03-10 17:58:00,
2013-03-10 14:03:00,64.4,32.4,30.18,SSW,203,3.4,9.2,30,0.00,,,0.00,WUHU216HW,2013-03-10 18:03:00,
2013-03-10 14:08:00,64.6,33.3,30.18,SSE,158,5.1,13.0,31,0.00,,,0.00,WUHU216HW,2013-03-10 18:08:00,
2013-03-10 14:13:00,64.4,32.4,30.18,SW,225,4.3,13.0,30,0.00,,,0.00,WUHU216HW,2013-03-10 18:13:00,
2013-03-10 14:18:00,65.3,33.9,30.18,SSE,158,3.8,7.6,31,0.00,,,0.00,WUHU216HW,2013-03-10 18:18:00,
2013-03-10 14:23:00,66.4,34.2,30.17,SE,135,4.0,7.2,30,0.00,,,0.00,WUHU216HW,2013-03-10 18:23:00,
2013-03-10 14:28:00,67.0,35.3,30.17,SSE,158,7.2,7.2,31,0.00,,,0.00,WUHU216HW,2013-03-10 18:28:00,
2013-03-10 14:33:00,66.4,34.9,30.16,SSE,158,2.7,7.2,31,0.00,,,0.00,WUHU216HW,2013-03-10 18:33:00,
2013-03-10 14:38:00,66.4,34.9,30.16,SSE,158,2.7,4.0,31,0.00,,,0.00,WUHU216HW,2013-03-10 18:38:00,
2013-03-10 14:43:00,67.0,34.6,30.16,SE,135,4.5,4.5,30,0.00,,,0.00,WUHU216HW,2013-03-10 18:43:00,
2013-03-10 14:48:00,67.3,35.7,30.16,SW,225,3.8,4.5,31,0.00,,,0.00,WUHU216HW,2013-03-10 18:48:00,
2013-03-10 14:53:00,66.4,32.1,30.16,SSW,203,9.2,9.2,28,0.00,,,0.00,WUHU216HW,2013-03-10 18:53:00,
2013-03-10 14:58:00,66.1,32.9,30.16,SE,135,2.9,9.2,29,0.00,,,0.00,WUHU216HW,2013-03-10 18:58:00,
2013-03-10 15:03:00,66.1,32.9,30.16,South,180,11.0,11.0,29,0.00,,,0.00,WUHU216HW,2013-03-10 19:03:00,
2013-03-10 15:08:00,65.5,32.4,30.16,South,180,3.6,11.0,29,0.00,,,0.00,WUHU216HW,2013-03-10 19:08:00,
2013-03-10 15:13:00,65.9,35.1,30.16,SSE,158,6.7,7.4,32,0.00,,,0.00,WUHU216HW,2013-03-10 19:13:00,
2013-03-10 15:18:00,67.0,35.3,30.15,SSE,158,4.0,8.5,31,0.00,,,0.00,WUHU216HW,2013-03-10 19:18:00,
2013-03-10 15:23:00,66.6,32.3,30.15,SSW,203,8.5,10.3,28,0.00,,,0.00,WUHU216HW,2013-03-10 19:23:00,
2013-03-10 15:28:00,65.5,33.4,30.15,SE,135,3.4,10.3,30,0.00,,,0.00,WUHU216HW,2013-03-10 19:28:00,
2013-03-10 15:33:00,65.5,33.4,30.15,ESE,113,3.4,7.6,30,0.00,,,0.00,WUHU216HW,2013-03-10 19:33:00,
2013-03-10 15:38:00,66.1,33.8,30.16,SSW,203,5.1,6.3,30,0.00,,,0.00,WUHU216HW,2013-03-10 19:38:00,
2013-03-10 15:43:00,65.7,32.5,30.15,South,180,4.0,10.5,29,0.00,,,0.00,WUHU216HW,2013-03-10 19:43:00,
2013-03-10 15:49:00,65.9,33.7,30.15,SE,135,8.1,10.5,30,0.00,,,0.00,WUHU216HW,2013-03-10 19:49:00,
2013-03-10 15:54:00,66.4,33.1,30.15,SE,135,7.2,8.1,29,0.00,,,0.00,WUHU216HW,2013-03-10 19:54:00,
2013-03-10 15:59:00,65.9,32.7,30.15,SSW,203,9.2,9.2,29,0.00,,,0.00,WUHU216HW,2013-03-10 19:59:00,
2013-03-10 16:04:00,64.8,32.8,30.15,SSW,203,4.7,9.2,30,0.00,,,0.00,WUHU216HW,2013-03-10 20:04:00,
2013-03-10 16:09:00,64.3,32.2,30.15,South,180,4.0,7.4,30,0.00,,,0.00,WUHU216HW,2013-03-10 20:09:00,
2013-03-10 16:14:00,63.9,32.0,30.15,South,180,6.7,6.7,30,0.00,,,0.00,WUHU216HW,2013-03-10 20:14:00,
2013-03-10 16:19:00,64.4,32.4,30.15,SSW,203,5.4,7.2,30,0.00,,,0.00,WUHU216HW,2013-03-10 20:19:00,
2013-03-10 16:24:00,64.8,32.8,30.14,South,180,2.9,7.2,30,0.00,,,0.00,WUHU216HW,2013-03-10 20:24:00,
2013-03-10 16:29:00,64.8,32.8,30.14,South,180,7.8,8.7,30,0.00,,,0.00,WUHU216HW,2013-03-10 20:29:00,
2013-03-10 16:34:00,65.2,33.0,30.14,SSW,203,6.0,8.7,30,0.00,,,0.00,WUHU216HW,2013-03-10 20:34:00,
2013-03-10 16:39:00,65.0,32.9,30.14,SSE,158,8.3,8.3,30,0.00,,,0.00,WUHU216HW,2013-03-10 20:39:00,
2013-03-10 16:44:00,64.4,31.4,30.14,SSE,158,8.3,8.5,29,0.00,,,0.00,WUHU216HW,2013-03-10 20:44:00,
2013-03-10 16:49:00,64.4,32.4,30.14,SSE,158,6.0,8.5,30,0.00,,,0.00,WUHU216HW,2013-03-10 20:49:00,
2013-03-10 16:54:00,64.3,31.2,30.14,SSW,203,10.3,10.3,29,0.00,,,0.00,WUHU216HW,2013-03-10 20:54:00,
2013-03-10 16:59:00,63.9,30.0,30.13,SSW,203,9.8,10.3,28,0.00,,,0.00,WUHU216HW,2013-03-10 20:59:00,
2013-03-10 17:04:00,63.7,30.8,30.13,SSE,158,3.1,9.8,29,0.00,,,0.00,WUHU216HW,2013-03-10 21:04:00,
2013-03-10 17:09:00,63.9,31.0,30.13,SSE,158,7.2,7.2,29,0.00,,,0.00,WUHU216HW,2013-03-10 21:09:00,
2013-03-10 17:14:00,63.9,31.0,30.13,SSE,158,5.4,7.4,29,0.00,,,0.00,WUHU216HW,2013-03-10 21:14:00,
2013-03-10 17:19:00,63.7,31.8,30.13,SW,225,3.8,9.6,30,0.00,,,0.00,WUHU216HW,2013-03-10 21:19:00,
2013-03-10 17:24:00,63.7,31.8,30.13,SE,135,6.0,9.6,30,0.00,,,0.00,WUHU216HW,2013-03-10 21:24:00,
2013-03-10 17:29:00,63.7,30.8,30.13,SSE,158,4.5,9.2,29,0.00,,,0.00,WUHU216HW,2013-03-10 21:29:00,
2013-03-10 17:34:00,63.4,30.4,30.13,SSE,158,6.5,8.5,29,0.00,,,0.00,WUHU216HW,2013-03-10 21:34:00,
2013-03-10 17:39:00,62.8,31.0,30.13,South,180,8.9,8.9,30,0.00,,,0.00,WUHU216HW,2013-03-10 21:39:00,
2013-03-10 17:44:00,62.3,31.1,30.13,SSE,158,5.4,8.9,31,0.00,,,0.00,WUHU216HW,2013-03-10 21:44:00,
2013-03-10 17:49:00,62.1,31.1,30.13,South,180,3.4,7.6,31,0.00,,,0.00,WUHU216HW,2013-03-10 21:49:00,
2013-03-10 17:54:00,61.7,30.7,30.13,SSW,203,4.0,6.3,31,0.00,,,0.00,WUHU216HW,2013-03-10 21:54:00,
2013-03-10 17:59:00,61.7,30.7,30.13,SSE,158,3.6,6.9,31,0.00,,,0.00,WUHU216HW,2013-03-10 21:59:00,
2013-03-10 18:04:00,61.6,31.2,30.13,SSE,158,5.4,6.9,32,0.00,,,0.00,WUHU216HW,2013-03-10 22:04:00,
2013-03-10 18:09:00,61.6,31.2,30.13,South,180,6.9,6.9,32,0.00,,,0.00,WUHU216HW,2013-03-10 22:09:00,
2013-03-10 18:14:00,61.2,30.3,30.13,South,180,4.7,6.9,31,0.00,,,0.00,WUHU216HW,2013-03-10 22:14:00,
2013-03-10 18:19:00,60.8,30.6,30.13,SE,135,6.0,6.0,32,0.00,,,0.00,WUHU216HW,2013-03-10 22:19:00,
2013-03-10 18:24:00,60.5,30.3,30.13,SE,135,3.1,6.9,32,0.00,,,0.00,WUHU216HW,2013-03-10 22:24:00,
2013-03-10 18:29:00,60.3,30.2,30.13,SW,225,2.5,6.9,32,0.00,,,0.00,WUHU216HW,2013-03-10 22:29:00,
2013-03-10 18:34:00,60.1,30.0,30.13,SE,135,1.8,6.5,32,0.00,,,0.00,WUHU216HW,2013-03-10 22:34:00,
2013-03-10 18:39:00,59.8,29.7,30.13,SSE,158,4.9,6.5,32,0.00,,,0.00,WUHU216HW,2013-03-10 22:39:00,
2013-03-10 18:44:00,59.2,30.0,30.13,South,180,1.8,4.9,33,0.00,,,0.00,WUHU216HW,2013-03-10 22:44:00,
2013-03-10 18:49:00,58.9,29.7,30.13,SE,135,2.5,4.5,33,0.00,,,0.00,WUHU216HW,2013-03-10 22:49:00,
2013-03-10 18:54:00,58.7,29.5,30.13,SSW,203,2.7,4.7,33,0.00,,,0.00,WUHU216HW,2013-03-10 22:54:00,
2013-03-10 18:59:00,58.3,29.9,30.13,SSW,203,2.2,5.4,34,0.00,,,0.00,WUHU216HW,2013-03-10 22:59:00,
2013-03-10 19:04:00,58.0,29.5,30.14,SSW,203,0.7,5.4,34,0.00,,,0.00,WUHU216HW,2013-03-10 23:04:00,
2013-03-10 19:09:00,57.6,29.3,30.14,SSE,158,1.6,4.0,34,0.00,,,0.00,WUHU216HW,2013-03-10 23:09:00,
2013-03-10 19:14:00,57.2,28.9,30.14,SSE,158,3.4,4.0,34,0.00,,,0.00,WUHU216HW,2013-03-10 23:14:00,
2013-03-10 19:19:00,56.9,28.6,30.15,South,180,1.1,3.4,34,0.00,,,0.00,WUHU216HW,2013-03-10 23:19:00,
2013-03-10 19:24:00,56.5,29.0,30.15,SE,135,2.5,2.5,35,0.00,,,0.00,WUHU216HW,2013-03-10 23:24:00,
2013-03-10 19:29:00,56.3,29.5,30.15,SSW,203,0.7,2.7,36,0.00,,,0.00,WUHU216HW,2013-03-10 23:29:00,
2013-03-10 19:34:00,56.0,29.2,30.15,SSE,158,1.1,2.7,36,0.00,,,0.00,WUHU216HW,2013-03-10 23:34:00,
2013-03-10 19:39:00,55.6,28.9,30.15,South,180,1.1,1.8,36,0.00,,,0.00,WUHU216HW,2013-03-10 23:39:00,
2013-03-10 19:44:00,55.4,28.7,30.15,South,180,1.8,2.0,36,0.00,,,0.00,WUHU216HW,2013-03-10 23:44:00,
2013-03-10 19:49:00,55.1,29.1,30.15,SE,135,0.9,2.0,37,0.00,,,0.00,WUHU216HW,2013-03-10 23:49:00,
2013-03-10 19:54:00,54.9,28.9,30.15,SSE,158,0.9,2.2,37,0.00,,,0.00,WUHU216HW,2013-03-10 23:54:00,
2013-03-10 19:59:00,54.5,28.6,30.15,SW,225,1.8,2.5,37,0.00,,,0.00,WUHU216HW,2013-03-10 23:59:00,
2013-03-10 20:04:00,54.4,28.4,30.14,SE,135,1.8,3.4,37,0.00,,,0.00,WUHU216HW,2013-03-11 00:04:00,
2013-03-10 20:09:00,54.0,28.2,30.14,SSW,203,1.3,3.4,37,0.00,,,0.00,WUHU216HW,2013-03-11 00:09:00,
2013-03-10 20:14:00,53.8,28.7,30.14,South,180,2.7,2.9,38,0.00,,,0.00,WUHU216HW,2013-03-11 00:14:00,
2013-03-10 20:19:00,53.8,28.7,30.14,SSE,158,2.9,2.9,38,0.00,,,0.00,WUHU216HW,2013-03-11 00:19:00,
2013-03-10 20:24:00,53.6,28.5,30.14,South,180,1.8,2.9,38,0.00,,,0.00,WUHU216HW,2013-03-11 00:24:00,
2013-03-10 20:29:00,53.6,28.5,30.14,SSE,158,1.8,3.1,38,0.00,,,0.00,WUHU216HW,2013-03-11 00:29:00,
2013-03-10 20:34:00,53.6,28.5,30.14,SSE,158,3.1,3.1,38,0.00,,,0.00,WUHU216HW,2013-03-11 00:34:00,
2013-03-10 20:39:00,53.5,28.4,30.14,ENE,68,1.8,3.4,38,0.00,,,0.00,WUHU216HW,2013-03-11 00:39:00,
2013-03-10 20:44:00,53.3,28.2,30.14,SSW,203,4.7,4.7,38,0.00,,,0.00,WUHU216HW,2013-03-11 00:44:00,
2013-03-10 20:49:00,53.1,28.0,30.14,SSE,158,2.2,4.7,38,0.00,,,0.00,WUHU216HW,2013-03-11 00:49:00,
2013-03-10 20:54:00,52.9,27.9,30.14,SSE,158,2.7,4.5,38,0.00,,,0.00,WUHU216HW,2013-03-11 00:54:00,
2013-03-10 20:59:00,52.9,27.9,30.14,SSW,203,1.8,4.5,38,0.00,,,0.00,WUHU216HW,2013-03-11 00:59:00,
2013-03-10 21:04:00,52.9,27.9,30.14,SE,135,2.2,4.3,38,0.00,,,0.00,WUHU216HW,2013-03-11 01:04:00,
2013-03-10 21:09:00,52.9,27.9,30.14,SSW,203,1.6,4.7,38,0.00,,,0.00,WUHU216HW,2013-03-11 01:09:00,
2013-03-10 21:14:00,52.9,27.9,30.14,ESE,113,2.5,4.7,38,0.00,,,0.00,WUHU216HW,2013-03-11 01:14:00,
2013-03-10 21:19:00,52.9,27.2,30.14,SSE,158,3.6,6.3,37,0.00,,,0.00,WUHU216HW,2013-03-11 01:19:00,
2013-03-10 21:25:00,52.9,27.2,30.14,SSE,158,4.7,6.3,37,0.00,,,0.00,WUHU216HW,2013-03-11 01:25:00,
2013-03-10 21:30:00,52.9,27.2,30.14,SSW,203,2.5,5.4,37,0.00,,,0.00,WUHU216HW,2013-03-11 01:30:00,
2013-03-10 21:35:00,52.9,27.2,30.14,South,180,2.2,5.4,37,0.00,,,0.00,WUHU216HW,2013-03-11 01:35:00,
2013-03-10 21:40:00,52.9,27.2,30.14,SSE,158,3.4,5.1,37,0.00,,,0.00,WUHU216HW,2013-03-11 01:40:00,
2013-03-10 21:45:00,52.6,26.8,30.14,SSE,158,5.6,5.6,37,0.00,,,0.00,WUHU216HW,2013-03-11 01:45:00,
2013-03-10 21:50:00,52.6,26.8,30.14,South,180,2.5,5.6,37,0.00,,,0.00,WUHU216HW,2013-03-11 01:50:00,
2013-03-10 21:55:00,52.4,26.7,30.14,South,180,1.3,4.0,37,0.00,,,0.00,WUHU216HW,2013-03-11 01:55:00,
2013-03-10 22:00:00,52.2,26.6,30.14,SSW,203,5.1,5.1,37,0.00,,,0.00,WUHU216HW,2013-03-11 02:00:00,
2013-03-10 22:05:00,52.2,26.6,30.15,South,180,2.7,5.1,37,0.00,,,0.00,WUHU216HW,2013-03-11 02:05:00,
2013-03-10 22:10:00,51.8,26.9,30.15,SSE,158,4.3,4.7,38,0.00,,,0.00,WUHU216HW,2013-03-11 02:10:00,
2013-03-10 22:15:00,51.7,26.7,30.15,SSE,158,1.6,4.7,38,0.00,,,0.00,WUHU216HW,2013-03-11 02:15:00,
2013-03-10 22:20:00,51.5,26.6,30.15,SW,225,1.6,5.4,38,0.00,,,0.00,WUHU216HW,2013-03-11 02:20:00,
2013-03-10 22:25:00,51.5,26.6,30.15,SSE,158,4.7,5.4,38,0.00,,,0.00,WUHU216HW,2013-03-11 02:25:00,
2013-03-10 22:30:00,51.1,26.3,30.14,SSE,158,3.1,6.3,38,0.00,,,0.00,WUHU216HW,2013-03-11 02:30:00,
2013-03-10 22:35:00,51.1,26.3,30.14,ESE,113,2.2,6.3,38,0.00,,,0.00,WUHU216HW,2013-03-11 02:35:00,
2013-03-10 22:40:00,50.8,25.9,30.14,SSE,158,2.9,5.4,38,0.00,,,0.00,WUHU216HW,2013-03-11 02:40:00,
2013-03-10 22:45:00,50.6,25.7,30.14,SSW,203,2.7,4.9,38,0.00,,,0.00,WUHU216HW,2013-03-11 02:45:00,
2013-03-10 22:50:00,50.6,25.7,30.14,SSW,203,4.0,4.9,38,0.00,,,0.00,WUHU216HW,2013-03-11 02:50:00,
2013-03-10 22:55:00,50.4,25.6,30.14,SSE,158,3.8,5.4,38,0.00,,,0.00,WUHU216HW,2013-03-11 02:55:00,
2013-03-10 23:00:00,50.4,25.6,30.14,SSE,158,4.5,5.4,38,0.00,,,0.00,WUHU216HW,2013-03-11 03:00:00,
2013-03-10 23:05:00,50.4,25.6,30.14,South,180,7.8,7.8,38,0.00,,,0.00,WUHU216HW,2013-03-11 03:05:00,
2013-03-10 23:10:00,50.4,25.6,30.14,SSE,158,2.7,7.8,38,0.00,,,0.00,WUHU216HW,2013-03-11 03:10:00,
2013-03-10 23:15:00,50.2,25.5,30.14,SW,225,1.3,6.9,38,0.00,,,0.00,WUHU216HW,2013-03-11 03:15:00,
2013-03-10 23:20:00,50.2,26.1,30.14,South,180,4.0,6.3,39,0.00,,,0.00,WUHU216HW,2013-03-11 03:20:00,
2013-03-10 23:25:00,50.0,25.9,30.13,SSE,158,2.0,4.0,39,0.00,,,0.00,WUHU216HW,2013-03-11 03:25:00,
2013-03-10 23:30:00,49.9,25.1,30.13,SSE,158,3.4,4.0,38,0.00,,,0.00,WUHU216HW,2013-03-11 03:30:00,
2013-03-10 23:35:00,49.9,25.1,30.13,SSE,158,2.5,4.9,38,0.00,,,0.00,WUHU216HW,2013-03-11 03:35:00,
2013-03-10 23:40:00,49.7,24.9,30.13,South,180,4.9,4.9,38,0.00,,,0.00,WUHU216HW,2013-03-11 03:40:00,
2013-03-10 23:45:00,49.7,24.9,30.13,ESE,113,2.9,4.9,38,0.00,,,0.00,WUHU216HW,2013-03-11 03:45:00,
2013-03-10 23:50:00,49.7,24.9,30.13,SSW,203,3.4,5.4,38,0.00,,,0.00,WUHU216HW,2013-03-11 03:50:00,
2013-03-10 23:55:00,49.5,24.9,30.12,ESE,113,3.1,5.4,38,0.00,,,0.00,WUHU216HW,2013-03-11 03:55:00,